Regional Weather Roundup
Issued by NWS

Home | Current Version | Previous Version | Graphics & Text | Print | Product List | Glossary On
Versions: 1 2 3 4 5 6 7 8 9 10 11 12 13 14 15 16 17 18 19 20 21 22 23 24 25 26 27 28 29 30 31 32 33 34 35 36 37 38 39 40 41 42 43 44 45 46 47 48 49 50
000
ASUS45 KCYS 250810
RWRWY

WYOMING REGIONAL WEATHER ROUNDUP
NATIONAL WEATHER SERVICE CHEYENNE WY
200 AM MDT MON SEP 25 2017

NOTE:  "FAIR" INDICATES FEW OR NO CLOUDS BELOW 12,000 FEET
WITH NO SIGNIFICANT WEATHER AND/OR OBSTRUCTIONS TO VISIBILITY.

WYZ001-250900-
YELLOWSTONE NATIONAL PARK

CITY           SKY/WX    TMP DP  RH WIND       PRES   REMARKS
LK YELLOWSTONE NOT AVBL
W YELLOWSTONE  NOT AVBL

$$
WYZ002>013-054>058-071-098>099-250900-
NORTHERN WYOMING

CITY           SKY/WX    TMP DP  RH WIND       PRES   REMARKS
JACKSON        CLOUDY    34  33  96 CALM      30.11R
CODY           MOCLDY    41  35  79 CALM      30.12S
GREYBULL       CLOUDY    45  44  97 E5        30.11S
WORLAND        CLOUDY    43  42  97 CALM      30.10F
SHERIDAN       CLOUDY    44  41  89 CALM      30.11F
BUFFALO        CLOUDY    40  37  89 CALM      30.12S
GILLETTE       LGT RAIN  41  39  93 E3        30.12F
HULETT         LGT RAIN  39  37  93 CALM      30.13S
NEWCASTLE      RAIN      41  41 100 NW3       30.15R

$$
WYZ014>020-022>026-101>103-250900-
CENTRAL WYOMING

CITY           SKY/WX    TMP DP  RH WIND       PRES   REMARKS
BIG PINEY      LGT SNOW  33  32  96 CALM      30.12R FOG
PINEDALE       LGT SNOW  32  32 100 CALM      30.13R
DUBOIS         CLOUDY    32  32 100 CALM      30.10S
LANDER         CLOUDY    38  36  92 CALM      30.10F
RIVERTON       CLOUDY    39  37  92 CALM      30.11F
CASPER         CLOUDY    34  33  96 NE6       30.10S WCI  29
DOUGLAS        CLOUDY    37  35  92 CALM      30.13F

$$
WYZ021-027>030-104>119-250900-
SOUTHERN WYOMING

CITY           SKY/WX    TMP DP  RH WIND       PRES   REMARKS
EVANSTON       CLOUDY    34  34 100 SW9       30.13S WCI  27
FORT BRIDGER   CLOUDY    36  36 100 W12       30.15R WCI  28
ROCK SPRINGS   CLOUDY    35  33  92 CALM      30.11R
DIXON          CLOUDY    37  34  91 CALM      30.14R
RAWLINS        CLOUDY    34  32  92 CALM      30.10S
SARATOGA       FOG       34  34 100 E3        30.11S VSB 1/2
LARAMIE        FAIR      31  31 100 CALM      30.10R
CHEYENNE       CLOUDY    40  37  89 N8        30.10R WCI  34
TORRINGTON     CLOUDY    44  43  96 NE8       30.09F
PINE BLUFFS    CLOUDY    43  43 100 MISG      30.09S

$$



USA.gov is the U.S. government's official web portal to all federal, state and local government web resources and services.